User: anonymous   Login
Location: Cabeza de los Veneras
(40.2000°N, 5.2000°W)
Time: 13:48:18
(UTC+00:00)
Language:

Cosmos 1536 Rocket - Orbit

View from above orbital plane
View from above orbital plane
View from above satellite
View from above satellite

Ground track
Ground track

The orbit data is extracted from the following two-line orbital elements,

1 14700U 84013B   24173.72264931  .00000686  00000-0  78511-4 0  9995
2 14700  82.5368 282.7147 0019928 155.7159 317.9554 14.84427276159665
Epoch (UTC): 21 June 2024 17:20:36
Eccentricity: 0.0019928
inclination: 82.5368°
perigee height: 601 km
apogee height: 629 km
right ascension of ascending node: 282.7147°
argument of perigee: 155.7159°
revolutions per day: 14.84427276
mean anomaly at epoch: 317.9554°
orbit number at epoch: 15966

The dashed part of the orbit path shows where the satellite is in the earth's shadow,  

DLR